Simultaneous Nadir Overpasses (SNOs) Predictions

Prediction of SNOs between GOES-15 and TERRA Satellite Orbit:

Table of predicted SNOs for the next 14.0 days since TLE Epoch: 6/16/2018
Index Date Time (GOES-15) GOES-15 Lat,Lon TERRA Lat,Lon Distance(km) Time Diff (sec)
1 06/16/2018 19:20:23 -0.14,-134.65 -0.54,-132.84 206.23 80
2 06/17/2018 07:44:26 0.12,-134.67 -0.59,-138.03 381.48 80
3 06/19/2018 07:32:16 0.13,-134.76 0.08,-135.08 35.91 80
4 06/21/2018 07:17:25 0.14,-134.85 0.70,-132.13 309.68 80
5 06/21/2018 19:41:21 -0.11,-134.88 0.38,-137.29 273.33 80
6 06/23/2018 19:26:30 -0.12,-134.96 -0.24,-134.33 71.73 80
7 06/25/2018 19:14:20 -0.13,-135.05 -0.92,-131.39 416.25 80
8 06/26/2018 07:38:24 0.10,-135.06 -0.20,-136.58 171.89 80
9 06/28/2018 07:23:33 0.11,-135.14 0.43,-133.62 171.88 80
10 06/28/2018 19:47:29 -0.09,-135.16 0.65,-138.78 411.40 80




NCC Satellite Simultaneous Nadir Overpasses (SNOs) Prediction Service
